Wetterdaten: Freitag, 26.08.2022
Datum Zeit Temp. Aussen Temp. o. S. Temp +5cm Feuchte Auss Luftdruck Regen Sonnenschein Regendauer Solar Windben Empfang
26.08.2022 00:00 22,9 C 21,1 C 17,2 C 71 % 1013,0 hPa 0,0 l/m 0 min 0 min 0 W/m 0,0 km/h (0 Bft) 100,00 %
26.08.2022 00:05 22,8 C 21,1 C 17,2 C 71 % 1013,0 hPa 0,0 l/m 0 min 0 min 0 W/m 0,0 km/h (0 Bft) 100,00 %
26.08.2022 00:10 22,7 C 21,1 C 17,2 C 70 % 1013,0 hPa 0,0 l/m 0 min 0 min 0 W/m 0,0 km/h (0 Bft) 100,00 %
26.08.2022 00:15 22,6 C 21,1 C 17,2 C 70 % 1013,0 hPa 0,0 l/m 0 min 0 min 0 W/m 3,2 km/h (1 Bft) 100,00 %
26.08.2022 00:20 22,4 C 21,1 C 17,2 C 69 % 1013,2 hPa 0,0 l/m 0 min 0 min 0 W/m 3,2 km/h (1 Bft) 100,00 %
26.08.2022 00:25 22,4 C 21,7 C 17,8 C 68 % 1013,2 hPa 0,0 l/m 0 min 0 min 0 W/m 12,9 km/h (3 Bft) 100,00 %
26.08.2022 00:30 22,4 C 21,7 C 18,3 C 68 % 1013,2 hPa 0,0 l/m 0 min 0 min 0 W/m 9,7 km/h (2 Bft) 100,00 %
26.08.2022 00:35 22,6 C 21,7 C 18,3 C 68 % 1013,3 hPa 0,0 l/m 0 min 0 min 0 W/m 6,4 km/h (2 Bft) 100,00 %
26.08.2022 00:40 22,6 C 21,7 C 18,3 C 68 % 1013,3 hPa 0,0 l/m 0 min 0 min 0 W/m 6,4 km/h (2 Bft) 100,00 %
26.08.2022 00:45 22,6 C 21,7 C 18,3 C 68 % 1013,3 hPa 0,0 l/m 0 min 0 min 0 W/m 9,7 km/h (2 Bft) 100,00 %
26.08.2022 00:50 22,6 C 21,1 C 17,8 C 69 % 1013,4 hPa 0,0 l/m 0 min 0 min 0 W/m 9,7 km/h (2 Bft) 100,00 %
26.08.2022 00:55 22,5 C 21,1 C 17,8 C 71 % 1013,5 hPa 0,0 l/m 0 min 0 min 0 W/m 9,7 km/h (2 Bft) 99,12 %
26.08.2022 01:00 22,4 C 21,1 C 17,8 C 71 % 1013,6 hPa 0,0 l/m 0 min 0 min 0 W/m 9,7 km/h (2 Bft) 100,00 %
26.08.2022 01:05 22,4 C 21,1 C 17,8 C 73 % 1013,6 hPa 0,0 l/m 0 min 0 min 0 W/m 9,7 km/h (2 Bft) 96,49 %
26.08.2022 01:10 22,3 C 21,1 C 17,8 C 74 % 1013,6 hPa 0,0 l/m 0 min 0 min 0 W/m 6,4 km/h (2 Bft) 96,49 %
26.08.2022 01:15 22,3 C 21,1 C 17,8 C 75 % 1013,6 hPa 0,0 l/m 0 min 0 min 0 W/m 6,4 km/h (2 Bft) 98,25 %
26.08.2022 01:20 22,3 C 21,1 C 17,8 C 76 % 1013,5 hPa 0,0 l/m 0 min 0 min 0 W/m 12,9 km/h (3 Bft) 96,49 %
26.08.2022 01:25 22,3 C 21,1 C 17,8 C 77 % 1013,5 hPa 0,0 l/m 0 min 0 min 0 W/m 3,2 km/h (1 Bft) 98,25 %
26.08.2022 01:30 22,2 C 21,1 C 17,2 C 78 % 1013,5 hPa 0,0 l/m 0 min 0 min 0 W/m 9,7 km/h (2 Bft) 98,25 %
26.08.2022 01:35 22,1 C 20,6 C 17,2 C 79 % 1013,5 hPa 0,0 l/m 0 min 0 min 0 W/m 16,1 km/h (3 Bft) 100,00 %
26.08.2022 01:40 22,1 C 20,6 C 17,2 C 80 % 1013,5 hPa 0,0 l/m 0 min 0 min 0 W/m 16,1 km/h (3 Bft) 100,00 %
26.08.2022 01:45 22,0 C 20,6 C 17,2 C 80 % 1013,5 hPa 0,0 l/m 0 min 0 min 0 W/m 12,9 km/h (3 Bft) 100,00 %
26.08.2022 01:50 21,9 C 20,6 C 17,2 C 81 % 1013,5 hPa 0,0 l/m 0 min 0 min 0 W/m 12,9 km/h (3 Bft) 100,00 %
26.08.2022 01:55 21,8 C 20,6 C 17,2 C 82 % 1013,5 hPa 0,0 l/m 0 min 0 min 0 W/m 6,4 km/h (2 Bft) 100,00 %
26.08.2022 02:00 21,8 C 20,6 C 17,2 C 82 % 1013,6 hPa 0,0 l/m 0 min 0 min 0 W/m 6,4 km/h (2 Bft) 74,56 %
26.08.2022 02:05 21,7 C 20,6 C 17,2 C 83 % 1013,6 hPa 0,0 l/m 0 min 0 min 0 W/m 6,4 km/h (2 Bft) 100,00 %
26.08.2022 02:10 21,7 C 20,6 C 17,2 C 83 % 1013,7 hPa 0,0 l/m 0 min 0 min 0 W/m 9,7 km/h (2 Bft) 100,00 %
26.08.2022 02:15 21,7 C 20,6 C 17,2 C 84 % 1013,7 hPa 0,0 l/m 0 min 0 min 0 W/m 9,7 km/h (2 Bft) 93,86 %
26.08.2022 02:20 21,6 C 20,6 C 17,2 C 84 % 1013,7 hPa 0,0 l/m 0 min 0 min 0 W/m 6,4 km/h (2 Bft) 64,04 %
26.08.2022 02:25 21,6 C 20,6 C 17,2 C 84 % 1013,8 hPa 0,0 l/m 0 min 0 min 0 W/m 9,7 km/h (2 Bft) 100,00 %
26.08.2022 02:30 21,5 C 20,6 C 17,2 C 84 % 1013,8 hPa 0,0 l/m 0 min 0 min 0 W/m 9,7 km/h (2 Bft) 99,12 %
26.08.2022 02:35 21,4 C 20,0 C 17,2 C 85 % 1013,8 hPa 0,0 l/m 0 min 0 min 0 W/m 16,1 km/h (3 Bft) 99,12 %
26.08.2022 02:40 21,4 C 20,0 C 17,2 C 85 % 1014,0 hPa 0,0 l/m 0 min 0 min 0 W/m 12,9 km/h (3 Bft) 100,00 %
26.08.2022 02:45 21,3 C 20,0 C 17,2 C 85 % 1014,0 hPa 0,0 l/m 0 min 0 min 0 W/m 6,4 km/h (2 Bft) 97,37 %
26.08.2022 02:50 21,3 C 20,0 C 17,2 C 86 % 1014,0 hPa 0,0 l/m 0 min 0 min 0 W/m 6,4 km/h (2 Bft) 99,12 %
26.08.2022 02:55 21,2 C 20,0 C 16,7 C 86 % 1014,1 hPa 0,0 l/m 0 min 0 min 0 W/m 6,4 km/h (2 Bft) 99,12 %
26.08.2022 03:00 21,2 C 20,0 C 16,7 C 86 % 1014,1 hPa 0,0 l/m 0 min 0 min 0 W/m 6,4 km/h (2 Bft) 97,37 %
26.08.2022 03:05 21,2 C 20,0 C 16,7 C 86 % 1014,0 hPa 0,0 l/m 0 min 0 min 0 W/m 6,4 km/h (2 Bft) 98,25 %
26.08.2022 03:10 21,2 C 20,0 C 16,7 C 87 % 1014,1 hPa 0,0 l/m 0 min 0 min 0 W/m 9,7 km/h (2 Bft) 97,37 %
26.08.2022 03:15 21,1 C 20,0 C 16,7 C 87 % 1014,1 hPa 0,0 l/m 0 min 0 min 0 W/m 6,4 km/h (2 Bft) 100,00 %
26.08.2022 03:20 21,1 C 20,0 C 16,7 C 87 % 1014,2 hPa 0,0 l/m 0 min 0 min 0 W/m 6,4 km/h (2 Bft) 100,00 %
26.08.2022 03:25 21,1 C 20,0 C 16,7 C 87 % 1014,1 hPa 0,0 l/m 0 min 0 min 0 W/m 9,7 km/h (2 Bft) 100,00 %
26.08.2022 03:30 21,0 C 20,0 C 16,7 C 87 % 1014,2 hPa 0,0 l/m 0 min 0 min 0 W/m 9,7 km/h (2 Bft) 100,00 %
26.08.2022 03:35 20,9 C 19,4 C 16,7 C 88 % 1014,2 hPa 0,0 l/m 0 min 0 min 0 W/m 6,4 km/h (2 Bft) 100,00 %
26.08.2022 03:40 20,9 C 19,4 C 16,7 C 88 % 1014,2 hPa 0,0 l/m 0 min 0 min 0 W/m 9,7 km/h (2 Bft) 100,00 %
26.08.2022 03:45 20,8 C 19,4 C 16,7 C 88 % 1014,3 hPa 0,0 l/m 0 min 0 min 0 W/m 9,7 km/h (2 Bft) 100,00 %
26.08.2022 03:50 20,7 C 19,4 C 16,7 C 88 % 1014,3 hPa 0,0 l/m 0 min 0 min 0 W/m 9,7 km/h (2 Bft) 100,00 %
26.08.2022 03:55 20,7 C 19,4 C 16,7 C 89 % 1014,4 hPa 0,0 l/m 0 min 0 min 0 W/m 9,7 km/h (2 Bft) 100,00 %
26.08.2022 04:00 20,6 C 19,4 C 16,7 C 89 % 1014,5 hPa 0,0 l/m 0 min 0 min 0 W/m 12,9 km/h (3 Bft) 100,00 %
26.08.2022 04:05 20,6 C 19,4 C 16,7 C 90 % 1014,4 hPa 0,0 l/m 0 min 0 min 0 W/m 9,7 km/h (2 Bft) 100,00 %
26.08.2022 04:10 20,6 C 19,4 C 16,1 C 90 % 1014,4 hPa 0,0 l/m 0 min 0 min 0 W/m 9,7 km/h (2 Bft) 99,12 %
26.08.2022 04:15 20,5 C 19,4 C 16,1 C 90 % 1014,5 hPa 0,0 l/m 0 min 0 min 0 W/m 6,4 km/h (2 Bft) 99,12 %
26.08.2022 04:20 20,4 C 19,4 C 16,1 C 90 % 1014,6 hPa 0,0 l/m 0 min 0 min 0 W/m 9,7 km/h (2 Bft) 100,00 %
26.08.2022 04:25 20,4 C 19,4 C 16,1 C 91 % 1014,6 hPa 0,0 l/m 0 min 0 min 0 W/m 9,7 km/h (2 Bft) 100,00 %
26.08.2022 04:30 20,4 C 19,4 C 16,1 C 91 % 1014,6 hPa 0,0 l/m 0 min 0 min 0 W/m 9,7 km/h (2 Bft) 99,12 %
26.08.2022 04:35 20,4 C 19,4 C 16,1 C 91 % 1014,7 hPa 0,0 l/m 0 min 0 min 0 W/m 16,1 km/h (3 Bft) 100,00 %
26.08.2022 04:40 20,5 C 19,4 C 16,7 C 91 % 1014,7 hPa 0,0 l/m 0 min 0 min 0 W/m 12,9 km/h (3 Bft) 100,00 %
26.08.2022 04:45 20,5 C 19,4 C 16,7 C 91 % 1014,6 hPa 0,0 l/m 0 min 0 min 0 W/m 9,7 km/h (2 Bft) 100,00 %
26.08.2022 04:50 20,6 C 20,0 C 16,7 C 92 % 1014,6 hPa 0,0 l/m 0 min 0 min 0 W/m 6,4 km/h (2 Bft) 100,00 %
26.08.2022 04:55 20,6 C 19,4 C 16,7 C 92 % 1014,7 hPa 0,0 l/m 0 min 0 min 0 W/m 12,9 km/h (3 Bft) 99,12 %
26.08.2022 05:00 20,6 C 20,0 C 16,7 C 92 % 1014,7 hPa 0,0 l/m 0 min 0 min 0 W/m 19,3 km/h (3 Bft) 100,00 %
26.08.2022 05:05 20,6 C 19,4 C 16,7 C 92 % 1014,7 hPa 0,0 l/m 0 min 0 min 0 W/m 16,1 km/h (3 Bft) 100,00 %
26.08.2022 05:10 20,6 C 20,0 C 16,7 C 92 % 1014,7 hPa 0,0 l/m 0 min 0 min 0 W/m 12,9 km/h (3 Bft) 97,37 %
26.08.2022 05:15 20,6 C 19,4 C 16,7 C 92 % 1014,7 hPa 0,0 l/m 0 min 0 min 0 W/m 16,1 km/h (3 Bft) 100,00 %
26.08.2022 05:20 20,6 C 20,0 C 16,7 C 92 % 1014,7 hPa 0,0 l/m 0 min 0 min 0 W/m 9,7 km/h (2 Bft) 98,25 %
26.08.2022 05:25 20,6 C 20,0 C 16,7 C 92 % 1014,7 hPa 0,0 l/m 0 min 0 min 0 W/m 6,4 km/h (2 Bft) 99,12 %
26.08.2022 05:30 20,6 C 20,0 C 16,7 C 92 % 1014,7 hPa 0,0 l/m 0 min 0 min 0 W/m 12,9 km/h (3 Bft) 100,00 %
26.08.2022 05:35 20,6 C 20,0 C 16,7 C 92 % 1014,7 hPa 0,0 l/m 0 min 0 min 0 W/m 9,7 km/h (2 Bft) 99,12 %
26.08.2022 05:40 20,6 C 20,0 C 16,7 C 92 % 1014,7 hPa 0,0 l/m 0 min 0 min 0 W/m 12,9 km/h (3 Bft) 100,00 %
26.08.2022 05:45 20,6 C 20,0 C 16,7 C 92 % 1014,7 hPa 0,0 l/m 0 min 0 min 0 W/m 9,7 km/h (2 Bft) 99,12 %
26.08.2022 05:50 20,6 C 20,0 C 16,7 C 92 % 1014,8 hPa 0,0 l/m 0 min 0 min 0 W/m 9,7 km/h (2 Bft) 98,25 %
26.08.2022 05:55 20,6 C 20,0 C 16,7 C 91 % 1014,8 hPa 0,0 l/m 0 min 0 min 0 W/m 12,9 km/h (3 Bft) 100,00 %
26.08.2022 06:00 20,6 C 20,0 C 16,7 C 92 % 1014,7 hPa 0,0 l/m 0 min 0 min 0 W/m 6,4 km/h (2 Bft) 100,00 %
26.08.2022 06:05 20,6 C 20,0 C 16,7 C 91 % 1014,7 hPa 0,0 l/m 0 min 0 min 0 W/m 6,4 km/h (2 Bft) 100,00 %
26.08.2022 06:10 20,6 C 20,0 C 16,7 C 91 % 1014,7 hPa 0,0 l/m 0 min 0 min 0 W/m 9,7 km/h (2 Bft) 100,00 %
26.08.2022 06:15 20,6 C 20,0 C 16,7 C 91 % 1014,8 hPa 0,0 l/m 0 min 0 min 0 W/m 6,4 km/h (2 Bft) 100,00 %
26.08.2022 06:20 20,6 C 20,0 C 16,7 C 91 % 1014,8 hPa 0,0 l/m 0 min 0 min 0 W/m 6,4 km/h (2 Bft) 100,00 %
26.08.2022 06:25 20,7 C 20,0 C 16,7 C 91 % 1014,7 hPa 0,0 l/m 0 min 0 min 0 W/m 9,7 km/h (2 Bft) 100,00 %
26.08.2022 06:30 20,7 C 20,0 C 16,7 C 91 % 1014,7 hPa 0,0 l/m 0 min 0 min 0 W/m 6,4 km/h (2 Bft) 100,00 %
26.08.2022 06:35 20,7 C 20,0 C 16,7 C 91 % 1014,8 hPa 0,0 l/m 0 min 0 min 0 W/m 9,7 km/h (2 Bft) 100,00 %
26.08.2022 06:40 20,7 C 20,0 C 16,7 C 91 % 1014,9 hPa 0,0 l/m 0 min 0 min 0 W/m 9,7 km/h (2 Bft) 100,00 %
26.08.2022 06:45 20,7 C 20,0 C 16,7 C 91 % 1014,8 hPa 0,0 l/m 0 min 0 min 4 W/m 9,7 km/h (2 Bft) 99,12 %
26.08.2022 06:50 20,7 C 20,0 C 16,7 C 91 % 1014,8 hPa 0,0 l/m 0 min 0 min 7 W/m 9,7 km/h (2 Bft) 97,37 %
26.08.2022 06:55 20,7 C 20,0 C 16,7 C 91 % 1014,8 hPa 0,0 l/m 0 min 0 min 10 W/m 6,4 km/h (2 Bft) 95,61 %
26.08.2022 07:00 20,7 C 20,0 C 16,7 C 91 % 1014,9 hPa 0,0 l/m 0 min 0 min 12 W/m 6,4 km/h (2 Bft) 99,12 %
26.08.2022 07:05 20,7 C 20,0 C 16,7 C 91 % 1014,9 hPa 0,0 l/m 0 min 0 min 13 W/m 3,2 km/h (1 Bft) 98,25 %
26.08.2022 07:10 20,7 C 20,0 C 16,7 C 90 % 1014,9 hPa 0,0 l/m 0 min 0 min 13 W/m 9,7 km/h (2 Bft) 98,25 %
26.08.2022 07:15 20,8 C 20,0 C 16,7 C 90 % 1014,9 hPa 0,0 l/m 0 min 0 min 17 W/m 6,4 km/h (2 Bft) 100,00 %
26.08.2022 07:20 20,8 C 20,0 C 16,7 C 90 % 1014,9 hPa 0,0 l/m 0 min 0 min 18 W/m 9,7 km/h (2 Bft) 100,00 %
26.08.2022 07:25 20,8 C 20,0 C 16,7 C 90 % 1014,9 hPa 0,0 l/m 0 min 0 min 21 W/m 9,7 km/h (2 Bft) 100,00 %
26.08.2022 07:30 20,8 C 20,0 C 16,7 C 90 % 1014,9 hPa 0,0 l/m 0 min 0 min 27 W/m 12,9 km/h (3 Bft) 100,00 %
26.08.2022 07:35 20,8 C 20,0 C 16,7 C 90 % 1014,9 hPa 0,0 l/m 0 min 0 min 33 W/m 12,9 km/h (3 Bft) 100,00 %
26.08.2022 07:40 20,8 C 20,0 C 16,7 C 90 % 1014,9 hPa 0,0 l/m 0 min 0 min 38 W/m 16,1 km/h (3 Bft) 100,00 %
26.08.2022 07:45 20,8 C 20,0 C 16,7 C 90 % 1014,9 hPa 0,0 l/m 0 min 0 min 41 W/m 12,9 km/h (3 Bft) 100,00 %
26.08.2022 07:50 20,8 C 20,0 C 17,2 C 90 % 1015,0 hPa 0,0 l/m 0 min 0 min 45 W/m 9,7 km/h (2 Bft) 100,00 %
26.08.2022 07:55 20,8 C 20,6 C 17,2 C 90 % 1015,1 hPa 0,0 l/m 0 min 0 min 45 W/m 9,7 km/h (2 Bft) 100,00 %
26.08.2022 08:00 20,9 C 20,0 C 16,7 C 89 % 1015,1 hPa 0,0 l/m 0 min 0 min 50 W/m 19,3 km/h (3 Bft) 100,00 %
26.08.2022 08:05 20,8 C 20,0 C 16,7 C 89 % 1015,1 hPa 0,0 l/m 0 min 0 min 48 W/m 16,1 km/h (3 Bft) 100,00 %
26.08.2022 08:10 20,8 C 20,0 C 16,7 C 89 % 1015,1 hPa 0,0 l/m 0 min 0 min 47 W/m 12,9 km/h (3 Bft) 100,00 %
26.08.2022 08:15 20,8 C 20,0 C 16,7 C 89 % 1015,1 hPa 0,0 l/m 0 min 0 min 47 W/m 6,4 km/h (2 Bft) 99,12 %
26.08.2022 08:20 20,9 C 20,6 C 17,2 C 89 % 1015,1 hPa 0,0 l/m 0 min 0 min 59 W/m 6,4 km/h (2 Bft) 98,25 %
26.08.2022 08:25 20,9 C 20,6 C 17,2 C 89 % 1015,2 hPa 0,0 l/m 0 min 0 min 57 W/m 12,9 km/h (3 Bft) 100,00 %
26.08.2022 08:30 20,9 C 20,6 C 17,2 C 89 % 1015,2 hPa 0,0 l/m 0 min 0 min 55 W/m 12,9 km/h (3 Bft) 97,37 %
26.08.2022 08:35 20,9 C 20,6 C 17,2 C 89 % 1015,2 hPa 0,0 l/m 0 min 0 min 57 W/m 9,7 km/h (2 Bft) 100,00 %
26.08.2022 08:40 21,0 C 20,6 C 17,2 C 89 % 1015,3 hPa 0,0 l/m 0 min 0 min 64 W/m 6,4 km/h (2 Bft) 100,00 %
26.08.2022 08:45 21,0 C 20,6 C 17,2 C 89 % 1015,3 hPa 0,0 l/m 0 min 0 min 77 W/m 9,7 km/h (2 Bft) 100,00 %
26.08.2022 08:50 21,0 C 20,6 C 17,2 C 89 % 1015,3 hPa 0,0 l/m 0 min 0 min 64 W/m 16,1 km/h (3 Bft) 100,00 %
26.08.2022 08:55 21,0 C 20,6 C 17,2 C 88 % 1015,4 hPa 0,0 l/m 0 min 0 min 50 W/m 12,9 km/h (3 Bft) 100,00 %
26.08.2022 09:00 21,1 C 20,6 C 17,2 C 88 % 1015,3 hPa 0,0 l/m 0 min 0 min 37 W/m 16,1 km/h (3 Bft) 99,12 %
26.08.2022 09:05 21,1 C 20,6 C 17,2 C 88 % 1015,4 hPa 0,0 l/m 0 min 0 min 45 W/m 9,7 km/h (2 Bft) 100,00 %
26.08.2022 09:10 21,0 C 20,6 C 16,7 C 88 % 1015,4 hPa 0,0 l/m 0 min 0 min 45 W/m 16,1 km/h (3 Bft) 100,00 %
26.08.2022 09:15 20,9 C 20,6 C 16,7 C 88 % 1015,4 hPa 0,0 l/m 0 min 0 min 51 W/m 16,1 km/h (3 Bft) 100,00 %
26.08.2022 09:20 20,9 C 20,6 C 17,2 C 88 % 1015,4 hPa 0,0 l/m 0 min 0 min 76 W/m 12,9 km/h (3 Bft) 100,00 %
26.08.2022 09:25 21,0 C 20,6 C 17,2 C 87 % 1015,5 hPa 0,0 l/m 0 min 0 min 100 W/m 19,3 km/h (3 Bft) 100,00 %
26.08.2022 09:30 21,1 C 20,6 C 17,2 C 87 % 1015,6 hPa 0,0 l/m 0 min 0 min 95 W/m 12,9 km/h (3 Bft) 100,00 %
26.08.2022 09:35 21,1 C 20,6 C 17,2 C 86 % 1015,6 hPa 0,0 l/m 0 min 0 min 83 W/m 19,3 km/h (3 Bft) 100,00 %
26.08.2022 09:40 21,1 C 20,6 C 17,2 C 86 % 1015,6 hPa 0,0 l/m 0 min 0 min 66 W/m 9,7 km/h (2 Bft) 100,00 %
26.08.2022 09:45 21,1 C 20,6 C 17,2 C 86 % 1015,6 hPa 0,0 l/m 0 min 0 min 63 W/m 9,7 km/h (2 Bft) 100,00 %
26.08.2022 09:50 21,2 C 20,6 C 17,2 C 87 % 1015,7 hPa 0,0 l/m 0 min 0 min 64 W/m 9,7 km/h (2 Bft) 100,00 %
26.08.2022 09:55 21,2 C 20,6 C 17,2 C 87 % 1015,7 hPa 0,0 l/m 0 min 0 min 77 W/m 9,7 km/h (2 Bft) 99,12 %
26.08.2022 10:00 21,3 C 20,6 C 17,2 C 87 % 1015,7 hPa 0,0 l/m 0 min 0 min 79 W/m 12,9 km/h (3 Bft) 100,00 %
26.08.2022 10:05 21,3 C 20,6 C 17,2 C 86 % 1015,7 hPa 0,0 l/m 0 min 0 min 98 W/m 19,3 km/h (3 Bft) 100,00 %
26.08.2022 10:10 21,3 C 21,1 C 17,2 C 86 % 1015,7 hPa 0,0 l/m 0 min 0 min 115 W/m 16,1 km/h (3 Bft) 100,00 %
26.08.2022 10:15 21,3 C 21,1 C 17,2 C 86 % 1015,6 hPa 0,0 l/m 0 min 0 min 117 W/m 19,3 km/h (3 Bft) 100,00 %
26.08.2022 10:20 21,3 C 21,1 C 17,8 C 86 % 1015,7 hPa 0,0 l/m 0 min 0 min 112 W/m 12,9 km/h (3 Bft) 100,00 %
26.08.2022 10:25 21,4 C 21,1 C 17,8 C 85 % 1015,7 hPa 0,0 l/m 0 min 0 min 99 W/m 12,9 km/h (3 Bft) 100,00 %
26.08.2022 10:30 21,5 C 21,1 C 17,8 C 85 % 1015,7 hPa 0,0 l/m 0 min 0 min 110 W/m 19,3 km/h (3 Bft) 99,12 %
26.08.2022 10:35 21,6 C 21,1 C 17,8 C 85 % 1015,8 hPa 0,0 l/m 0 min 0 min 124 W/m 19,3 km/h (3 Bft) 98,25 %
26.08.2022 10:40 21,6 C 21,1 C 17,8 C 84 % 1015,8 hPa 0,0 l/m 0 min 0 min 142 W/m 22,5 km/h (4 Bft) 94,74 %
26.08.2022 10:45 21,6 C 21,7 C 17,8 C 84 % 1015,8 hPa 0,0 l/m 0 min 0 min 140 W/m 12,9 km/h (3 Bft) 98,25 %
26.08.2022 10:50 21,7 C 21,7 C 17,8 C 84 % 1015,8 hPa 0,0 l/m 0 min 0 min 176 W/m 12,9 km/h (3 Bft) 98,25 %
26.08.2022 10:55 21,8 C 21,7 C 18,3 C 83 % 1015,7 hPa 0,0 l/m 0 min 0 min 187 W/m 16,1 km/h (3 Bft) 97,37 %
26.08.2022 11:00 21,9 C 22,2 C 18,3 C 82 % 1015,7 hPa 0,0 l/m 0 min 0 min 204 W/m 16,1 km/h (3 Bft) 98,25 %
26.08.2022 11:05 22,0 C 22,2 C 18,3 C 83 % 1015,8 hPa 0,0 l/m 0 min 0 min 204 W/m 22,5 km/h (4 Bft) 97,37 %
26.08.2022 11:10 22,1 C 22,2 C 18,3 C 82 % 1015,8 hPa 0,0 l/m 0 min 0 min 255 W/m 22,5 km/h (4 Bft) 99,12 %
26.08.2022 11:15 22,2 C 22,2 C 18,3 C 81 % 1015,9 hPa 0,0 l/m 0 min 0 min 243 W/m 9,7 km/h (2 Bft) 90,35 %
26.08.2022 11:20 22,3 C 22,2 C 18,3 C 81 % 1015,8 hPa 0,0 l/m 0 min 0 min 151 W/m 16,1 km/h (3 Bft) 85,96 %
26.08.2022 11:25 22,3 C 22,2 C 18,3 C 81 % 1015,8 hPa 0,0 l/m 0 min 0 min 171 W/m 19,3 km/h (3 Bft) 100,00 %
26.08.2022 11:30 22,4 C 22,8 C 18,9 C 80 % 1015,8 hPa 0,0 l/m 0 min 0 min 245 W/m 22,5 km/h (4 Bft) 100,00 %
26.08.2022 11:35 22,6 C 22,8 C 18,9 C 80 % 1015,9 hPa 0,0 l/m 0 min 0 min 216 W/m 19,3 km/h (3 Bft) 100,00 %
26.08.2022 11:40 22,7 C 22,8 C 18,9 C 81 % 1015,9 hPa 0,0 l/m 0 min 0 min 208 W/m 25,7 km/h (4 Bft) 78,95 %
26.08.2022 11:45 22,7 C 22,8 C 18,9 C 80 % 1016,0 hPa 0,0 l/m 0 min 0 min 227 W/m 19,3 km/h (3 Bft) 94,74 %
26.08.2022 11:50 22,8 C 22,8 C 18,9 C 80 % 1016,0 hPa 0,0 l/m 0 min 0 min 212 W/m 16,1 km/h (3 Bft) 100,00 %
26.08.2022 11:55 22,9 C 23,3 C 18,9 C 79 % 1016,0 hPa 0,0 l/m 0 min 0 min 270 W/m 16,1 km/h (3 Bft) 100,00 %
26.08.2022 12:00 23,1 C 23,3 C 19,4 C 79 % 1015,9 hPa 0,0 l/m 0 min 0 min 195 W/m 22,5 km/h (4 Bft) 100,00 %
26.08.2022 12:05 23,2 C 23,9 C 19,4 C 78 % 1015,9 hPa 0,0 l/m 0 min 0 min 153 W/m 16,1 km/h (3 Bft) 100,00 %
26.08.2022 12:10 23,3 C 23,9 C 19,4 C 78 % 1015,9 hPa 0,0 l/m 0 min 0 min 149 W/m 9,7 km/h (2 Bft) 100,00 %
26.08.2022 12:15 23,4 C 23,9 C 20,0 C 78 % 1015,9 hPa 0,0 l/m 0 min 0 min 121 W/m 19,3 km/h (3 Bft) 100,00 %
26.08.2022 12:20 23,6 C 23,9 C 20,0 C 77 % 1015,9 hPa 0,0 l/m 0 min 0 min 118 W/m 16,1 km/h (3 Bft) 100,00 %
26.08.2022 12:25 23,6 C 23,3 C 19,4 C 77 % 1015,8 hPa 0,0 l/m 0 min 0 min 99 W/m 19,3 km/h (3 Bft) 100,00 %
26.08.2022 12:30 23,6 C 23,3 C 19,4 C 77 % 1015,8 hPa 0,0 l/m 0 min 0 min 86 W/m 19,3 km/h (3 Bft) 100,00 %
26.08.2022 12:35 23,6 C 23,3 C 19,4 C 77 % 1015,8 hPa 0,0 l/m 0 min 0 min 81 W/m 16,1 km/h (3 Bft) 100,00 %
26.08.2022 12:40 23,5 C 22,8 C 18,9 C 79 % 1015,8 hPa 0,0 l/m 0 min 0 min 99 W/m 16,1 km/h (3 Bft) 100,00 %
26.08.2022 13:10 23,1 C 23,3 C 18,9 C 77 % 1015,7 hPa 0,0 l/m 0 min 0 min 156 W/m 22,5 km/h (4 Bft) 100,00 %
26.08.2022 13:12 23,2 C 23,3 C 18,9 C 77 % 1015,7 hPa 0,0 l/m 0 min 0 min 244 W/m 6,4 km/h (2 Bft) 94,29 %
26.08.2022 13:14 23,2 C 23,3 C 19,4 C 77 % 1015,7 hPa 0,0 l/m 0 min 0 min 210 W/m 22,5 km/h (4 Bft) 95,74 %
26.08.2022 13:16 23,3 C 23,3 C 19,4 C 77 % 1015,7 hPa 0,0 l/m 0 min 0 min 170 W/m 12,9 km/h (3 Bft) 97,92 %
26.08.2022 13:18 23,3 C 23,3 C 19,4 C 77 % 1015,7 hPa 0,0 l/m 0 min 0 min 160 W/m 16,1 km/h (3 Bft) 93,62 %
26.08.2022 13:20 23,3 C 23,3 C 19,4 C 77 % 1015,7 hPa 0,0 l/m 0 min 0 min 236 W/m 22,5 km/h (4 Bft) 95,74 %
26.08.2022 13:22 23,3 C 23,3 C 19,4 C 77 % 1015,7 hPa 0,0 l/m 0 min 0 min 214 W/m 16,1 km/h (3 Bft) 93,62 %
26.08.2022 13:24 23,4 C 23,3 C 19,4 C 76 % 1015,6 hPa 0,0 l/m 0 min 0 min 184 W/m 16,1 km/h (3 Bft) 95,65 %
26.08.2022 13:26 23,4 C 23,3 C 19,4 C 76 % 1015,7 hPa 0,0 l/m 0 min 0 min 127 W/m 25,7 km/h (4 Bft) 91,49 %
26.08.2022 13:28 23,4 C 22,8 C 19,4 C 76 % 1015,7 hPa 0,0 l/m 0 min 0 min 88 W/m 22,5 km/h (4 Bft) 95,74 %
26.08.2022 13:30 23,3 C 22,8 C 19,4 C 76 % 1015,6 hPa 0,0 l/m 0 min 0 min 71 W/m 19,3 km/h (3 Bft) 95,74 %
26.08.2022 13:32 23,3 C 22,8 C 19,4 C 76 % 1015,7 hPa 0,0 l/m 0 min 0 min 122 W/m 19,3 km/h (3 Bft) 93,75 %
26.08.2022 13:34 23,3 C 22,8 C 19,4 C 76 % 1015,6 hPa 0,0 l/m 0 min 0 min 138 W/m 16,1 km/h (3 Bft) 93,62 %
26.08.2022 13:36 23,3 C 22,8 C 18,9 C 77 % 1015,7 hPa 0,0 l/m 0 min 0 min 78 W/m 16,1 km/h (3 Bft) 95,65 %
26.08.2022 13:38 23,3 C 22,8 C 18,9 C 78 % 1015,7 hPa 0,0 l/m 0 min 0 min 73 W/m 16,1 km/h (3 Bft) 95,74 %
26.08.2022 13:40 23,3 C 22,8 C 18,9 C 78 % 1015,7 hPa 0,0 l/m 0 min 0 min 75 W/m 12,9 km/h (3 Bft) 95,74 %
26.08.2022 13:42 23,3 C 22,8 C 18,9 C 79 % 1015,7 hPa 0,0 l/m 0 min 0 min 86 W/m 9,7 km/h (2 Bft) 95,74 %
26.08.2022 13:44 23,2 C 22,8 C 18,9 C 79 % 1015,7 hPa 0,0 l/m 0 min 0 min 85 W/m 19,3 km/h (3 Bft) 93,62 %
26.08.2022 13:46 23,2 C 22,8 C 18,9 C 79 % 1015,6 hPa 0,0 l/m 0 min 0 min 80 W/m 12,9 km/h (3 Bft) 95,74 %
26.08.2022 13:48 23,2 C 22,8 C 18,9 C 79 % 1015,7 hPa 0,0 l/m 0 min 0 min 70 W/m 19,3 km/h (3 Bft) 93,48 %
26.08.2022 13:50 23,1 C 22,8 C 18,9 C 80 % 1015,6 hPa 0,0 l/m 0 min 0 min 69 W/m 9,7 km/h (2 Bft) 97,87 %
26.08.2022 13:52 23,1 C 22,8 C 18,9 C 80 % 1015,6 hPa 0,0 l/m 0 min 0 min 106 W/m 16,1 km/h (3 Bft) 95,74 %
26.08.2022 13:54 23,1 C 22,8 C 18,9 C 80 % 1015,6 hPa 0,0 l/m 0 min 0 min 73 W/m 12,9 km/h (3 Bft) 95,74 %
26.08.2022 13:56 23,1 C 22,2 C 18,9 C 80 % 1015,6 hPa 0,0 l/m 0 min 0 min 60 W/m 12,9 km/h (3 Bft) 95,74 %
26.08.2022 13:58 23,1 C 22,2 C 18,9 C 80 % 1015,6 hPa 0,0 l/m 0 min 0 min 63 W/m 12,9 km/h (3 Bft) 100,00 %
26.08.2022 14:00 23,1 C 22,8 C 18,9 C 80 % 1015,6 hPa 0,0 l/m 0 min 0 min 65 W/m 9,7 km/h (2 Bft) 100,00 %
26.08.2022 14:02 23,0 C 22,8 C 18,9 C 80 % 1015,6 hPa 0,0 l/m 0 min 0 min 73 W/m 16,1 km/h (3 Bft) 100,00 %
26.08.2022 14:04 23,0 C 22,8 C 18,9 C 80 % 1015,6 hPa 0,0 l/m 0 min 0 min 70 W/m 16,1 km/h (3 Bft) 97,87 %
26.08.2022 14:06 23,0 C 22,8 C 18,9 C 80 % 1015,6 hPa 0,0 l/m 0 min 0 min 66 W/m 12,9 km/h (3 Bft) 100,00 %
26.08.2022 14:08 23,0 C 22,8 C 18,9 C 80 % 1015,6 hPa 0,0 l/m 0 min 0 min 70 W/m 12,9 km/h (3 Bft) 100,00 %
26.08.2022 14:10 23,0 C 22,2 C 18,9 C 80 % 1015,6 hPa 0,0 l/m 0 min 0 min 58 W/m 12,9 km/h (3 Bft) 100,00 %
26.08.2022 14:12 22,9 C 22,2 C 18,9 C 80 % 1015,6 hPa 0,0 l/m 0 min 0 min 97 W/m 19,3 km/h (3 Bft) 97,83 %
26.08.2022 14:14 22,9 C 22,2 C 18,9 C 80 % 1015,7 hPa 0,0 l/m 0 min 0 min 97 W/m 16,1 km/h (3 Bft) 100,00 %
26.08.2022 14:16 22,9 C 22,2 C 18,9 C 80 % 1015,7 hPa 0,0 l/m 0 min 0 min 92 W/m 12,9 km/h (3 Bft) 97,87 %
26.08.2022 14:18 22,9 C 22,2 C 18,9 C 80 % 1015,7 hPa 0,0 l/m 0 min 0 min 89 W/m 16,1 km/h (3 Bft) 100,00 %
26.08.2022 14:20 22,9 C 22,2 C 18,9 C 80 % 1015,7 hPa 0,0 l/m 0 min 0 min 89 W/m 25,7 km/h (4 Bft) 100,00 %
26.08.2022 14:22 22,9 C 22,2 C 18,9 C 80 % 1015,7 hPa 0,0 l/m 0 min 0 min 99 W/m 16,1 km/h (3 Bft) 100,00 %
26.08.2022 14:24 22,8 C 22,2 C 18,9 C 80 % 1015,7 hPa 0,0 l/m 0 min 0 min 110 W/m 22,5 km/h (4 Bft) 100,00 %
26.08.2022 14:26 22,8 C 22,2 C 18,9 C 80 % 1015,7 hPa 0,0 l/m 0 min 0 min 118 W/m 19,3 km/h (3 Bft) 95,74 %
26.08.2022 14:28 22,8 C 22,2 C 18,9 C 80 % 1015,8 hPa 0,0 l/m 0 min 0 min 114 W/m 19,3 km/h (3 Bft) 100,00 %
26.08.2022 14:30 22,8 C 22,2 C 18,9 C 80 % 1015,7 hPa 0,0 l/m 0 min 0 min 108 W/m 19,3 km/h (3 Bft) 100,00 %
26.08.2022 14:32 22,8 C 22,2 C 18,9 C 80 % 1015,8 hPa 0,0 l/m 0 min 0 min 114 W/m 16,1 km/h (3 Bft) 95,74 %
26.08.2022 14:34 22,8 C 22,2 C 18,9 C 80 % 1015,7 hPa 0,0 l/m 0 min 0 min 127 W/m 12,9 km/h (3 Bft) 100,00 %
26.08.2022 14:36 22,8 C 22,2 C 18,9 C 80 % 1015,7 hPa 0,0 l/m 0 min 0 min 137 W/m 19,3 km/h (3 Bft) 100,00 %
26.08.2022 14:38 22,8 C 22,2 C 18,9 C 80 % 1015,7 hPa 0,0 l/m 0 min 0 min 143 W/m 12,9 km/h (3 Bft) 100,00 %
26.08.2022 14:40 22,9 C 22,8 C 18,9 C 80 % 1015,7 hPa 0,0 l/m 0 min 0 min 111 W/m 22,5 km/h (4 Bft) 97,87 %
26.08.2022 14:42 22,9 C 22,2 C 18,9 C 80 % 1015,8 hPa 0,0 l/m 0 min 0 min 120 W/m 22,5 km/h (4 Bft) 97,87 %
26.08.2022 14:44 22,9 C 22,2 C 18,9 C 80 % 1015,8 hPa 0,0 l/m 0 min 0 min 113 W/m 9,7 km/h (2 Bft) 91,49 %
26.08.2022 14:46 22,9 C 22,2 C 18,9 C 80 % 1015,8 hPa 0,0 l/m 0 min 0 min 110 W/m 12,9 km/h (3 Bft) 97,87 %
26.08.2022 14:48 22,9 C 22,8 C 18,9 C 80 % 1015,8 hPa 0,0 l/m 0 min 0 min 111 W/m 12,9 km/h (3 Bft) 97,83 %
26.08.2022 14:50 22,9 C 22,2 C 18,9 C 80 % 1015,9 hPa 0,0 l/m 0 min 0 min 71 W/m 16,1 km/h (3 Bft) 97,87 %
26.08.2022 14:52 22,9 C 22,2 C 18,9 C 80 % 1015,8 hPa 0,0 l/m 0 min 0 min 59 W/m 16,1 km/h (3 Bft) 97,87 %
26.08.2022 14:54 22,9 C 22,2 C 18,9 C 80 % 1015,9 hPa 0,0 l/m 0 min 0 min 66 W/m 19,3 km/h (3 Bft) 97,87 %
26.08.2022 14:56 22,9 C 22,2 C 18,9 C 81 % 1015,9 hPa 0,0 l/m 0 min 0 min 65 W/m 9,7 km/h (2 Bft) 97,87 %
26.08.2022 14:58 22,9 C 22,2 C 18,9 C 81 % 1015,8 hPa 0,0 l/m 0 min 0 min 79 W/m 16,1 km/h (3 Bft) 97,87 %
26.08.2022 15:00 22,9 C 22,2 C 18,9 C 81 % 1015,8 hPa 0,0 l/m 0 min 0 min 83 W/m 19,3 km/h (3 Bft) 97,83 %
26.08.2022 15:02 22,9 C 22,2 C 18,9 C 81 % 1015,8 hPa 0,0 l/m 0 min 0 min 89 W/m 25,7 km/h (4 Bft) 95,74 %
26.08.2022 15:04 22,9 C 22,2 C 18,9 C 81 % 1015,8 hPa 0,0 l/m 0 min 0 min 91 W/m 19,3 km/h (3 Bft) 97,87 %
26.08.2022 15:06 22,8 C 22,2 C 18,9 C 81 % 1015,8 hPa 0,0 l/m 0 min 0 min 91 W/m 16,1 km/h (3 Bft) 97,87 %
26.08.2022 15:08 22,8 C 22,2 C 18,9 C 80 % 1015,8 hPa 0,0 l/m 0 min 0 min 104 W/m 25,7 km/h (4 Bft) 97,87 %
26.08.2022 15:10 22,8 C 22,2 C 18,9 C 81 % 1015,8 hPa 0,0 l/m 0 min 0 min 91 W/m 19,3 km/h (3 Bft) 100,00 %
26.08.2022 15:12 22,8 C 22,2 C 18,9 C 81 % 1015,8 hPa 0,0 l/m 0 min 0 min 97 W/m 22,5 km/h (4 Bft) 95,65 %
26.08.2022 15:14 22,8 C 22,2 C 18,9 C 81 % 1015,8 hPa 0,0 l/m 0 min 0 min 114 W/m 16,1 km/h (3 Bft) 100,00 %
26.08.2022 15:16 22,7 C 22,2 C 18,9 C 81 % 1015,7 hPa 0,0 l/m 0 min 0 min 150 W/m 16,1 km/h (3 Bft) 95,74 %
26.08.2022 15:18 22,7 C 22,2 C 18,9 C 81 % 1015,8 hPa 0,0 l/m 0 min 0 min 156 W/m 12,9 km/h (3 Bft) 100,00 %
26.08.2022 15:20 22,8 C 22,2 C 18,9 C 81 % 1015,8 hPa 0,0 l/m 0 min 0 min 141 W/m 19,3 km/h (3 Bft) 100,00 %
26.08.2022 15:22 22,7 C 22,2 C 18,3 C 81 % 1015,8 hPa 0,0 l/m 0 min 0 min 129 W/m 25,7 km/h (4 Bft) 100,00 %
26.08.2022 15:24 22,7 C 22,2 C 18,3 C 81 % 1015,8 hPa 0,0 l/m 0 min 0 min 124 W/m 16,1 km/h (3 Bft) 100,00 %
26.08.2022 15:26 22,7 C 22,2 C 18,3 C 81 % 1015,8 hPa 0,0 l/m 0 min 0 min 116 W/m 19,3 km/h (3 Bft) 100,00 %
26.08.2022 15:28 22,6 C 22,2 C 18,3 C 81 % 1015,8 hPa 0,0 l/m 0 min 0 min 106 W/m 16,1 km/h (3 Bft) 100,00 %
26.08.2022 15:30 22,6 C 22,2 C 18,3 C 81 % 1015,8 hPa 0,0 l/m 0 min 0 min 111 W/m 16,1 km/h (3 Bft) 100,00 %
26.08.2022 15:32 22,6 C 22,2 C 18,3 C 81 % 1015,8 hPa 0,0 l/m 0 min 0 min 113 W/m 16,1 km/h (3 Bft) 100,00 %
26.08.2022 15:34 22,5 C 21,7 C 18,3 C 81 % 1015,7 hPa 0,0 l/m 0 min 0 min 110 W/m 16,1 km/h (3 Bft) 100,00 %
26.08.2022 15:36 22,5 C 21,7 C 18,3 C 81 % 1015,7 hPa 0,0 l/m 0 min 0 min 114 W/m 12,9 km/h (3 Bft) 100,00 %
26.08.2022 15:38 22,4 C 21,7 C 18,3 C 81 % 1015,7 hPa 0,0 l/m 0 min 0 min 114 W/m 19,3 km/h (3 Bft) 97,14 %
26.08.2022 15:40 22,4 C 21,7 C 18,3 C 81 % 1015,7 hPa 0,0 l/m 0 min 0 min 107 W/m 19,3 km/h (3 Bft) 97,87 %
26.08.2022 15:42 22,4 C 21,7 C 18,3 C 81 % 1015,7 hPa 0,0 l/m 0 min 0 min 102 W/m 19,3 km/h (3 Bft) 97,87 %
26.08.2022 15:44 22,4 C 21,7 C 18,3 C 82 % 1015,7 hPa 0,0 l/m 0 min 0 min 98 W/m 12,9 km/h (3 Bft) 97,87 %
26.08.2022 15:46 22,4 C 21,7 C 18,3 C 82 % 1015,7 hPa 0,0 l/m 0 min 0 min 93 W/m 22,5 km/h (4 Bft) 97,87 %
26.08.2022 15:48 22,3 C 21,7 C 18,3 C 81 % 1015,7 hPa 0,0 l/m 0 min 0 min 89 W/m 22,5 km/h (4 Bft) 97,83 %
26.08.2022 15:50 22,3 C 21,7 C 18,3 C 82 % 1015,7 hPa 0,0 l/m 0 min 0 min 93 W/m 12,9 km/h (3 Bft) 97,87 %
26.08.2022 15:52 22,2 C 21,7 C 17,8 C 82 % 1015,7 hPa 0,0 l/m 0 min 0 min 103 W/m 22,5 km/h (4 Bft) 97,87 %
26.08.2022 15:54 22,2 C 21,7 C 17,8 C 82 % 1015,7 hPa 0,0 l/m 0 min 0 min 109 W/m 16,1 km/h (3 Bft) 93,62 %
26.08.2022 15:56 22,2 C 21,7 C 18,3 C 82 % 1015,7 hPa 0,0 l/m 0 min 0 min 105 W/m 16,1 km/h (3 Bft) 97,87 %
26.08.2022 15:58 22,2 C 21,7 C 18,3 C 82 % 1015,7 hPa 0,0 l/m 0 min 0 min 110 W/m 19,3 km/h (3 Bft) 97,87 %
26.08.2022 16:00 22,2 C 21,7 C 18,3 C 82 % 1015,7 hPa 0,0 l/m 0 min 0 min 119 W/m 12,9 km/h (3 Bft) 97,83 %
26.08.2022 16:02 22,2 C 21,7 C 18,3 C 82 % 1015,6 hPa 0,0 l/m 0 min 0 min 70 W/m 22,5 km/h (4 Bft) 97,87 %
26.08.2022 16:04 22,2 C 21,7 C 18,3 C 82 % 1015,6 hPa 0,0 l/m 0 min 0 min 67 W/m 25,7 km/h (4 Bft) 95,74 %
26.08.2022 16:06 22,1 C 21,7 C 18,3 C 82 % 1015,6 hPa 0,0 l/m 0 min 0 min 61 W/m 22,5 km/h (4 Bft) 95,74 %
26.08.2022 16:08 22,1 C 21,7 C 17,8 C 82 % 1015,5 hPa 0,0 l/m 0 min 0 min 77 W/m 38,6 km/h (5 Bft) 95,74 %
26.08.2022 16:10 22,1 C 22,2 C 18,3 C 82 % 1015,5 hPa 0,0 l/m 0 min 0 min 161 W/m 16,1 km/h (3 Bft) 95,74 %
26.08.2022 16:12 22,2 C 22,8 C 18,3 C 83 % 1015,5 hPa 0,0 l/m 0 min 0 min 280 W/m 19,3 km/h (3 Bft) 93,48 %
26.08.2022 16:14 22,3 C 22,8 C 18,9 C 82 % 1015,4 hPa 0,0 l/m 2 min 0 min 448 W/m 16,1 km/h (3 Bft) 97,87 %
26.08.2022 16:16 22,4 C 23,3 C 18,9 C 82 % 1015,5 hPa 0,0 l/m 2 min 0 min 467 W/m 25,7 km/h (4 Bft) 95,74 %
26.08.2022 16:18 22,6 C 24,4 C 18,9 C 82 % 1015,5 hPa 0,0 l/m 2 min 0 min 558 W/m 19,3 km/h (3 Bft) 96,00 %
26.08.2022 16:20 22,8 C 25,0 C 19,4 C 82 % 1015,5 hPa 0,0 l/m 2 min 0 min 631 W/m 22,5 km/h (4 Bft) 97,87 %
26.08.2022 16:22 22,9 C 25,0 C 19,4 C 81 % 1015,5 hPa 0,0 l/m 2 min 0 min 486 W/m 22,5 km/h (4 Bft) 93,62 %
26.08.2022 16:24 23,1 C 24,4 C 19,4 C 80 % 1015,4 hPa 0,0 l/m 2 min 0 min 418 W/m 19,3 km/h (3 Bft) 97,87 %
26.08.2022 16:26 23,2 C 24,4 C 19,4 C 80 % 1015,5 hPa 0,0 l/m 2 min 0 min 363 W/m 29,0 km/h (5 Bft) 97,87 %
26.08.2022 16:28 23,2 C 23,9 C 19,4 C 79 % 1015,4 hPa 0,0 l/m 2 min 0 min 410 W/m 22,5 km/h (4 Bft) 95,65 %
26.08.2022 16:30 23,2 C 23,9 C 19,4 C 79 % 1015,4 hPa 0,0 l/m 2 min 0 min 352 W/m 12,9 km/h (3 Bft) 95,74 %
26.08.2022 16:32 23,2 C 23,9 C 19,4 C 79 % 1015,4 hPa 0,0 l/m 2 min 0 min 317 W/m 16,1 km/h (3 Bft) 95,74 %
26.08.2022 16:34 23,2 C 23,9 C 19,4 C 79 % 1015,5 hPa 0,0 l/m 2 min 0 min 284 W/m 12,9 km/h (3 Bft) 95,74 %
26.08.2022 16:36 23,2 C 23,3 C 18,9 C 79 % 1015,5 hPa 0,0 l/m 2 min 0 min 323 W/m 25,7 km/h (4 Bft) 97,87 %
26.08.2022 16:38 23,2 C 23,9 C 18,9 C 79 % 1015,5 hPa 0,0 l/m 2 min 0 min 332 W/m 22,5 km/h (4 Bft) 95,74 %
26.08.2022 16:40 23,2 C 23,9 C 18,9 C 79 % 1015,5 hPa 0,0 l/m 2 min 0 min 341 W/m 22,5 km/h (4 Bft) 95,65 %
26.08.2022 16:42 23,2 C 23,9 C 19,4 C 79 % 1015,5 hPa 0,0 l/m 2 min 0 min 316 W/m 12,9 km/h (3 Bft) 95,74 %
26.08.2022 16:44 23,2 C 23,9 C 19,4 C 79 % 1015,5 hPa 0,0 l/m 2 min 0 min 337 W/m 16,1 km/h (3 Bft) 95,74 %
26.08.2022 16:46 23,3 C 24,4 C 19,4 C 79 % 1015,5 hPa 0,0 l/m 2 min 0 min 442 W/m 25,7 km/h (4 Bft) 95,74 %
26.08.2022 16:48 23,3 C 23,9 C 19,4 C 79 % 1015,5 hPa 0,0 l/m 2 min 0 min 447 W/m 16,1 km/h (3 Bft) 95,74 %
26.08.2022 16:50 23,3 C 23,9 C 19,4 C 78 % 1015,5 hPa 0,0 l/m 0 min 0 min 253 W/m 16,1 km/h (3 Bft) 95,74 %
26.08.2022 16:52 23,3 C 23,3 C 19,4 C 78 % 1015,5 hPa 0,0 l/m 0 min 0 min 202 W/m 16,1 km/h (3 Bft) 95,65 %
26.08.2022 16:54 23,3 C 23,3 C 18,9 C 78 % 1015,5 hPa 0,0 l/m 0 min 0 min 176 W/m 16,1 km/h (3 Bft) 95,74 %
26.08.2022 16:56 23,3 C 23,3 C 18,9 C 79 % 1015,5 hPa 0,0 l/m 0 min 0 min 154 W/m 32,2 km/h (5 Bft) 93,62 %
26.08.2022 16:58 23,3 C 22,8 C 18,9 C 78 % 1015,5 hPa 0,0 l/m 0 min 0 min 149 W/m 19,3 km/h (3 Bft) 95,74 %
26.08.2022 17:00 23,3 C 22,8 C 18,9 C 78 % 1015,5 hPa 0,0 l/m 0 min 0 min 129 W/m 16,1 km/h (3 Bft) 95,74 %
26.08.2022 17:02 23,2 C 22,8 C 18,9 C 78 % 1015,5 hPa 0,0 l/m 0 min 0 min 106 W/m 22,5 km/h (4 Bft) 93,62 %
26.08.2022 17:04 23,1 C 22,2 C 18,9 C 78 % 1015,6 hPa 0,0 l/m 0 min 0 min 97 W/m 29,0 km/h (5 Bft) 95,65 %
26.08.2022 17:06 23,1 C 22,2 C 18,9 C 78 % 1015,6 hPa 0,0 l/m 0 min 0 min 108 W/m 19,3 km/h (3 Bft) 93,62 %
26.08.2022 17:08 23,0 C 22,2 C 18,9 C 78 % 1015,6 hPa 0,0 l/m 0 min 0 min 119 W/m 16,1 km/h (3 Bft) 93,62 %
26.08.2022 17:10 23,0 C 22,2 C 18,9 C 78 % 1015,6 hPa 0,0 l/m 0 min 0 min 123 W/m 12,9 km/h (3 Bft) 95,74 %
26.08.2022 17:12 23,0 C 22,2 C 18,9 C 78 % 1015,6 hPa 0,0 l/m 0 min 0 min 141 W/m 16,1 km/h (3 Bft) 97,87 %
26.08.2022 17:14 22,9 C 22,2 C 18,9 C 79 % 1015,6 hPa 0,0 l/m 0 min 0 min 164 W/m 22,5 km/h (4 Bft) 100,00 %
26.08.2022 17:16 22,9 C 22,8 C 18,9 C 79 % 1015,6 hPa 0,0 l/m 0 min 0 min 189 W/m 9,7 km/h (2 Bft) 100,00 %
26.08.2022 17:18 22,9 C 22,8 C 18,9 C 79 % 1015,6 hPa 0,0 l/m 0 min 0 min 201 W/m 16,1 km/h (3 Bft) 100,00 %
26.08.2022 17:20 22,9 C 22,8 C 18,9 C 79 % 1015,5 hPa 0,0 l/m 0 min 0 min 186 W/m 19,3 km/h (3 Bft) 97,87 %
26.08.2022 17:22 22,8 C 22,8 C 18,9 C 79 % 1015,6 hPa 0,0 l/m 0 min 0 min 158 W/m 22,5 km/h (4 Bft) 100,00 %
26.08.2022 17:24 22,8 C 22,2 C 18,9 C 79 % 1015,5 hPa 0,0 l/m 0 min 0 min 146 W/m 19,3 km/h (3 Bft) 100,00 %
26.08.2022 17:26 22,8 C 22,2 C 18,9 C 79 % 1015,5 hPa 0,0 l/m 0 min 0 min 142 W/m 19,3 km/h (3 Bft) 100,00 %
26.08.2022 17:28 22,8 C 22,2 C 18,3 C 79 % 1015,5 hPa 0,0 l/m 0 min 0 min 119 W/m 22,5 km/h (4 Bft) 97,83 %
26.08.2022 17:30 22,8 C 22,2 C 18,3 C 79 % 1015,5 hPa 0,0 l/m 0 min 0 min 128 W/m 16,1 km/h (3 Bft) 100,00 %
26.08.2022 17:32 22,8 C 22,2 C 18,9 C 79 % 1015,5 hPa 0,0 l/m 0 min 0 min 137 W/m 19,3 km/h (3 Bft) 94,29 %
26.08.2022 17:34 22,8 C 22,2 C 18,9 C 79 % 1015,5 hPa 0,0 l/m 0 min 0 min 129 W/m 12,9 km/h (3 Bft) 100,00 %
26.08.2022 17:36 22,8 C 22,2 C 18,9 C 79 % 1015,4 hPa 0,0 l/m 0 min 0 min 115 W/m 16,1 km/h (3 Bft) 100,00 %
26.08.2022 17:38 22,7 C 22,2 C 18,3 C 79 % 1015,4 hPa 0,0 l/m 0 min 0 min 94 W/m 19,3 km/h (3 Bft) 100,00 %
26.08.2022 17:40 22,7 C 22,2 C 18,3 C 79 % 1015,5 hPa 0,0 l/m 0 min 0 min 95 W/m 19,3 km/h (3 Bft) 100,00 %
26.08.2022 17:42 22,7 C 21,7 C 18,3 C 78 % 1015,4 hPa 0,0 l/m 0 min 0 min 97 W/m 32,2 km/h (5 Bft) 100,00 %
26.08.2022 17:44 22,6 C 21,7 C 18,3 C 79 % 1015,4 hPa 0,0 l/m 0 min 0 min 87 W/m 25,7 km/h (4 Bft) 100,00 %
26.08.2022 17:46 22,6 C 21,7 C 18,3 C 78 % 1015,4 hPa 0,0 l/m 0 min 0 min 69 W/m 22,5 km/h (4 Bft) 97,87 %
26.08.2022 17:48 22,6 C 21,7 C 18,3 C 79 % 1015,4 hPa 0,0 l/m 0 min 0 min 65 W/m 32,2 km/h (5 Bft) 100,00 %
26.08.2022 17:50 22,5 C 21,7 C 18,3 C 78 % 1015,4 hPa 0,0 l/m 0 min 0 min 61 W/m 22,5 km/h (4 Bft) 100,00 %
26.08.2022 17:52 22,4 C 21,7 C 18,3 C 79 % 1015,4 hPa 0,0 l/m 0 min 0 min 58 W/m 9,7 km/h (2 Bft) 100,00 %
26.08.2022 17:54 22,4 C 21,7 C 18,3 C 79 % 1015,4 hPa 0,0 l/m 0 min 0 min 57 W/m 19,3 km/h (3 Bft) 97,87 %
26.08.2022 17:56 22,4 C 21,7 C 18,3 C 79 % 1015,4 hPa 0,0 l/m 0 min 0 min 55 W/m 16,1 km/h (3 Bft) 100,00 %
26.08.2022 17:58 22,3 C 21,7 C 18,3 C 79 % 1015,4 hPa 0,0 l/m 0 min 0 min 54 W/m 19,3 km/h (3 Bft) 98,31 %
26.08.2022 18:00 22,3 C 21,7 C 18,3 C 79 % 1015,4 hPa 0,0 l/m 0 min 0 min 51 W/m 16,1 km/h (3 Bft) 100,00 %
26.08.2022 18:02 22,3 C 21,7 C 17,8 C 79 % 1015,3 hPa 0,0 l/m 0 min 0 min 49 W/m 19,3 km/h (3 Bft) 100,00 %
26.08.2022 18:04 22,3 C 21,7 C 17,8 C 79 % 1015,3 hPa 0,0 l/m 0 min 0 min 51 W/m 29,0 km/h (5 Bft) 100,00 %
26.08.2022 18:08 22,2 C 21,7 C 17,8 C 78 % 1015,3 hPa 0,0 l/m 0 min 0 min 46 W/m 16,1 km/h (3 Bft) 100,00 %
26.08.2022 18:10 22,2 C 21,7 C 17,8 C 78 % 1015,3 hPa 0,0 l/m 0 min 0 min 49 W/m 12,9 km/h (3 Bft) 100,00 %
26.08.2022 18:12 22,2 C 21,7 C 18,3 C 79 % 1015,4 hPa 0,0 l/m 0 min 0 min 57 W/m 19,3 km/h (3 Bft) 100,00 %
26.08.2022 18:14 22,2 C 21,7 C 18,3 C 78 % 1015,3 hPa 0,0 l/m 0 min 0 min 63 W/m 12,9 km/h (3 Bft) 95,74 %
26.08.2022 18:16 22,2 C 21,7 C 17,8 C 78 % 1015,3 hPa 0,0 l/m 0 min 0 min 62 W/m 19,3 km/h (3 Bft) 97,87 %
26.08.2022 18:18 22,2 C 21,7 C 17,8 C 79 % 1015,3 hPa 0,0 l/m 0 min 0 min 60 W/m 12,9 km/h (3 Bft) 97,87 %
26.08.2022 18:20 22,2 C 21,1 C 17,8 C 79 % 1015,4 hPa 0,0 l/m 0 min 0 min 62 W/m 19,3 km/h (3 Bft) 97,87 %
26.08.2022 18:22 22,1 C 21,1 C 17,8 C 79 % 1015,4 hPa 0,0 l/m 0 min 0 min 62 W/m 12,9 km/h (3 Bft) 97,87 %
26.08.2022 18:24 22,1 C 21,7 C 17,8 C 79 % 1015,4 hPa 0,0 l/m 0 min 0 min 63 W/m 19,3 km/h (3 Bft) 97,83 %
26.08.2022 18:26 22,1 C 21,1 C 17,8 C 79 % 1015,4 hPa 0,0 l/m 0 min 0 min 65 W/m 9,7 km/h (2 Bft) 97,87 %
26.08.2022 18:28 22,1 C 21,1 C 17,8 C 79 % 1015,3 hPa 0,0 l/m 0 min 0 min 62 W/m 16,1 km/h (3 Bft) 95,74 %
26.08.2022 18:30 22,1 C 21,1 C 17,8 C 79 % 1015,4 hPa 0,0 l/m 0 min 0 min 54 W/m 9,7 km/h (2 Bft) 95,74 %
26.08.2022 18:32 22,1 C 21,1 C 17,8 C 79 % 1015,4 hPa 0,0 l/m 0 min 0 min 49 W/m 12,9 km/h (3 Bft) 97,92 %
26.08.2022 18:34 22,1 C 21,1 C 17,8 C 79 % 1015,4 hPa 0,0 l/m 0 min 0 min 53 W/m 16,1 km/h (3 Bft) 97,14 %
26.08.2022 18:36 22,1 C 21,1 C 17,8 C 79 % 1015,5 hPa 0,0 l/m 0 min 0 min 58 W/m 22,5 km/h (4 Bft) 95,08 %
26.08.2022 18:38 22,0 C 21,1 C 17,8 C 79 % 1015,5 hPa 0,0 l/m 0 min 0 min 64 W/m 12,9 km/h (3 Bft) 97,87 %
26.08.2022 18:40 22,0 C 21,1 C 17,8 C 79 % 1015,5 hPa 0,0 l/m 0 min 0 min 67 W/m 19,3 km/h (3 Bft) 95,74 %
26.08.2022 18:42 22,0 C 21,1 C 17,8 C 79 % 1015,5 hPa 0,0 l/m 0 min 0 min 61 W/m 9,7 km/h (2 Bft) 95,74 %
26.08.2022 18:44 22,0 C 21,1 C 17,8 C 79 % 1015,5 hPa 0,0 l/m 0 min 0 min 50 W/m 9,7 km/h (2 Bft) 95,74 %
26.08.2022 18:46 22,0 C 21,1 C 17,8 C 79 % 1015,5 hPa 0,0 l/m 0 min 0 min 44 W/m 9,7 km/h (2 Bft) 93,48 %
26.08.2022 18:48 21,9 C 21,1 C 17,8 C 79 % 1015,5 hPa 0,0 l/m 0 min 0 min 41 W/m 19,3 km/h (3 Bft) 95,74 %
26.08.2022 18:50 21,9 C 21,1 C 17,8 C 78 % 1015,5 hPa 0,0 l/m 0 min 0 min 36 W/m 9,7 km/h (2 Bft) 95,74 %
26.08.2022 18:52 21,9 C 21,1 C 17,8 C 79 % 1015,5 hPa 0,0 l/m 0 min 0 min 35 W/m 6,4 km/h (2 Bft) 95,74 %
26.08.2022 18:54 21,9 C 21,1 C 17,8 C 79 % 1015,5 hPa 0,0 l/m 0 min 0 min 35 W/m 12,9 km/h (3 Bft) 95,74 %
26.08.2022 18:56 21,9 C 21,1 C 17,8 C 79 % 1015,6 hPa 0,0 l/m 0 min 0 min 35 W/m 16,1 km/h (3 Bft) 93,62 %
26.08.2022 18:58 21,9 C 21,1 C 17,8 C 79 % 1015,6 hPa 0,0 l/m 0 min 0 min 38 W/m 12,9 km/h (3 Bft) 95,65 %
26.08.2022 19:00 21,8 C 21,1 C 17,8 C 79 % 1015,5 hPa 0,0 l/m 0 min 0 min 41 W/m 9,7 km/h (2 Bft) 97,87 %
26.08.2022 19:02 21,8 C 21,1 C 17,8 C 79 % 1015,5 hPa 0,0 l/m 0 min 0 min 44 W/m 19,3 km/h (3 Bft) 95,74 %
26.08.2022 19:04 21,8 C 21,1 C 17,8 C 79 % 1015,5 hPa 0,0 l/m 0 min 0 min 47 W/m 12,9 km/h (3 Bft) 97,87 %
26.08.2022 19:06 21,8 C 21,1 C 17,8 C 79 % 1015,6 hPa 0,0 l/m 0 min 0 min 46 W/m 19,3 km/h (3 Bft) 97,87 %
26.08.2022 19:08 21,8 C 21,1 C 17,2 C 79 % 1015,6 hPa 0,0 l/m 0 min 0 min 43 W/m 19,3 km/h (3 Bft) 93,62 %
26.08.2022 19:10 21,8 C 21,1 C 17,2 C 79 % 1015,6 hPa 0,0 l/m 0 min 0 min 41 W/m 19,3 km/h (3 Bft) 95,74 %
26.08.2022 19:12 21,7 C 21,1 C 17,2 C 79 % 1015,7 hPa 0,0 l/m 0 min 0 min 38 W/m 19,3 km/h (3 Bft) 97,83 %
26.08.2022 19:14 21,7 C 21,1 C 17,2 C 79 % 1015,7 hPa 0,0 l/m 0 min 0 min 34 W/m 9,7 km/h (2 Bft) 97,87 %
26.08.2022 19:16 21,7 C 20,6 C 17,2 C 79 % 1015,7 hPa 0,0 l/m 0 min 0 min 33 W/m 16,1 km/h (3 Bft) 100,00 %
26.08.2022 19:18 21,7 C 20,6 C 17,2 C 79 % 1015,7 hPa 0,0 l/m 0 min 0 min 33 W/m 16,1 km/h (3 Bft) 97,87 %
26.08.2022 19:20 21,7 C 21,1 C 17,2 C 79 % 1015,7 hPa 0,0 l/m 0 min 0 min 34 W/m 19,3 km/h (3 Bft) 100,00 %
26.08.2022 19:22 21,7 C 21,1 C 17,2 C 80 % 1015,8 hPa 0,0 l/m 0 min 0 min 35 W/m 19,3 km/h (3 Bft) 100,00 %
26.08.2022 19:24 21,6 C 21,1 C 17,2 C 80 % 1015,8 hPa 0,0 l/m 0 min 0 min 33 W/m 19,3 km/h (3 Bft) 97,87 %
26.08.2022 19:26 21,6 C 20,6 C 17,2 C 80 % 1015,8 hPa 0,0 l/m 0 min 0 min 30 W/m 12,9 km/h (3 Bft) 97,87 %
26.08.2022 19:28 21,6 C 20,6 C 17,2 C 80 % 1015,9 hPa 0,0 l/m 0 min 0 min 25 W/m 9,7 km/h (2 Bft) 100,00 %
26.08.2022 19:30 21,6 C 20,6 C 17,2 C 80 % 1015,9 hPa 0,0 l/m 0 min 0 min 21 W/m 16,1 km/h (3 Bft) 97,87 %
26.08.2022 19:32 21,6 C 20,6 C 17,2 C 80 % 1015,9 hPa 0,0 l/m 0 min 0 min 19 W/m 16,1 km/h (3 Bft) 95,74 %
26.08.2022 19:34 21,6 C 20,6 C 17,2 C 80 % 1015,9 hPa 0,0 l/m 0 min 0 min 21 W/m 19,3 km/h (3 Bft) 97,83 %
26.08.2022 19:36 21,6 C 20,6 C 17,2 C 80 % 1015,9 hPa 0,0 l/m 0 min 0 min 21 W/m 9,7 km/h (2 Bft) 97,87 %
26.08.2022 19:38 21,6 C 20,6 C 17,2 C 80 % 1016,0 hPa 0,0 l/m 0 min 0 min 19 W/m 12,9 km/h (3 Bft) 97,87 %
26.08.2022 19:40 21,6 C 20,6 C 17,2 C 80 % 1016,0 hPa 0,0 l/m 0 min 0 min 19 W/m 12,9 km/h (3 Bft) 97,87 %
26.08.2022 19:42 21,6 C 20,6 C 17,2 C 80 % 1015,9 hPa 0,0 l/m 0 min 0 min 20 W/m 19,3 km/h (3 Bft) 93,62 %
26.08.2022 19:44 21,5 C 20,6 C 17,2 C 80 % 1016,0 hPa 0,0 l/m 0 min 0 min 23 W/m 19,3 km/h (3 Bft) 97,87 %
26.08.2022 19:46 21,5 C 20,6 C 17,2 C 80 % 1016,0 hPa 0,0 l/m 0 min 0 min 27 W/m 12,9 km/h (3 Bft) 95,65 %
26.08.2022 19:48 21,4 C 20,6 C 17,2 C 80 % 1016,0 hPa 0,0 l/m 0 min 0 min 33 W/m 6,4 km/h (2 Bft) 97,87 %
26.08.2022 19:50 21,4 C 20,6 C 17,2 C 80 % 1016,1 hPa 0,0 l/m 0 min 0 min 37 W/m 6,4 km/h (2 Bft) 95,74 %
26.08.2022 19:52 21,4 C 20,6 C 17,2 C 80 % 1016,0 hPa 0,0 l/m 0 min 0 min 35 W/m 22,5 km/h (4 Bft) 97,87 %
26.08.2022 19:54 21,4 C 20,6 C 17,2 C 79 % 1016,1 hPa 0,0 l/m 0 min 0 min 38 W/m 19,3 km/h (3 Bft) 97,87 %
26.08.2022 19:56 21,4 C 20,6 C 17,2 C 79 % 1016,0 hPa 0,0 l/m 0 min 0 min 40 W/m 12,9 km/h (3 Bft) 97,87 %
26.08.2022 19:58 21,4 C 20,6 C 17,2 C 79 % 1016,0 hPa 0,0 l/m 2 min 0 min 39 W/m 19,3 km/h (3 Bft) 97,83 %
26.08.2022 20:00 21,4 C 20,6 C 17,2 C 79 % 1016,0 hPa 0,0 l/m 2 min 0 min 37 W/m 12,9 km/h (3 Bft) 97,87 %
26.08.2022 20:02 21,4 C 20,6 C 17,2 C 79 % 1016,1 hPa 0,0 l/m 2 min 0 min 35 W/m 16,1 km/h (3 Bft) 97,92 %
26.08.2022 20:04 21,4 C 20,6 C 17,2 C 79 % 1016,0 hPa 0,0 l/m 2 min 0 min 33 W/m 12,9 km/h (3 Bft) 97,87 %
26.08.2022 20:06 21,4 C 20,6 C 17,2 C 79 % 1015,9 hPa 0,0 l/m 2 min 0 min 32 W/m 16,1 km/h (3 Bft) 97,87 %
26.08.2022 20:08 21,3 C 20,6 C 17,2 C 79 % 1015,9 hPa 0,0 l/m 2 min 0 min 30 W/m 29,0 km/h (5 Bft) 97,87 %
26.08.2022 20:10 21,3 C 20,6 C 16,7 C 79 % 1015,9 hPa 0,0 l/m 2 min 0 min 30 W/m 22,5 km/h (4 Bft) 97,87 %
26.08.2022 20:12 21,3 C 20,6 C 17,2 C 79 % 1015,9 hPa 0,0 l/m 2 min 0 min 28 W/m 19,3 km/h (3 Bft) 97,87 %
26.08.2022 20:14 21,3 C 20,6 C 17,2 C 79 % 1015,9 hPa 0,0 l/m 2 min 0 min 26 W/m 6,4 km/h (2 Bft) 97,83 %
26.08.2022 20:16 21,3 C 20,6 C 17,2 C 79 % 1015,8 hPa 0,0 l/m 2 min 0 min 24 W/m 19,3 km/h (3 Bft) 97,87 %
26.08.2022 20:18 21,3 C 20,6 C 17,2 C 79 % 1016,0 hPa 0,0 l/m 2 min 0 min 21 W/m 12,9 km/h (3 Bft) 97,87 %
26.08.2022 20:20 21,3 C 20,6 C 17,2 C 79 % 1016,0 hPa 0,0 l/m 0 min 0 min 18 W/m 16,1 km/h (3 Bft) 97,87 %
26.08.2022 20:22 21,2 C 20,6 C 16,7 C 79 % 1016,0 hPa 0,0 l/m 0 min 0 min 16 W/m 16,1 km/h (3 Bft) 100,00 %
26.08.2022 20:24 21,2 C 20,6 C 16,7 C 79 % 1016,0 hPa 0,0 l/m 0 min 0 min 16 W/m 12,9 km/h (3 Bft) 100,00 %
26.08.2022 20:26 21,2 C 20,6 C 17,2 C 79 % 1016,1 hPa 0,0 l/m 0 min 0 min 15 W/m 12,9 km/h (3 Bft) 100,00 %
26.08.2022 20:28 21,2 C 20,6 C 16,7 C 79 % 1016,1 hPa 0,0 l/m 0 min 0 min 14 W/m 19,3 km/h (3 Bft) 97,87 %
26.08.2022 20:30 21,2 C 20,6 C 16,7 C 79 % 1016,1 hPa 0,0 l/m 0 min 0 min 13 W/m 16,1 km/h (3 Bft) 97,87 %
26.08.2022 20:32 21,2 C 20,6 C 16,7 C 79 % 1016,1 hPa 0,0 l/m 0 min 0 min 12 W/m 12,9 km/h (3 Bft) 100,00 %
26.08.2022 20:34 21,2 C 20,6 C 16,7 C 79 % 1016,0 hPa 0,0 l/m 0 min 0 min 11 W/m 6,4 km/h (2 Bft) 100,00 %
26.08.2022 20:36 21,2 C 20,6 C 16,7 C 79 % 1016,1 hPa 0,0 l/m 0 min 0 min 9 W/m 12,9 km/h (3 Bft) 95,74 %
26.08.2022 20:38 21,2 C 20,0 C 16,7 C 79 % 1016,1 hPa 0,0 l/m 0 min 0 min 7 W/m 22,5 km/h (4 Bft) 97,83 %
26.08.2022 20:40 21,1 C 20,0 C 16,7 C 80 % 1016,1 hPa 0,0 l/m 0 min 0 min 5 W/m 16,1 km/h (3 Bft) 97,87 %
26.08.2022 20:42 21,1 C 20,0 C 16,7 C 80 % 1016,1 hPa 0,0 l/m 0 min 0 min 1 W/m 19,3 km/h (3 Bft) 95,74 %
26.08.2022 20:44 21,1 C 20,0 C 16,7 C 80 % 1016,1 hPa 0,0 l/m 0 min 0 min 0 W/m 6,4 km/h (2 Bft) 97,87 %
26.08.2022 20:46 21,1 C 20,0 C 16,7 C 80 % 1016,2 hPa 0,0 l/m 0 min 0 min 0 W/m 12,9 km/h (3 Bft) 95,74 %
26.08.2022 20:48 21,1 C 20,0 C 16,7 C 80 % 1016,2 hPa 0,0 l/m 0 min 0 min 0 W/m 19,3 km/h (3 Bft) 95,74 %
26.08.2022 20:50 21,1 C 20,0 C 16,7 C 80 % 1016,2 hPa 0,0 l/m 0 min 0 min 0 W/m 9,7 km/h (2 Bft) 97,83 %
26.08.2022 20:52 21,1 C 20,0 C 16,7 C 80 % 1016,2 hPa 0,0 l/m 0 min 0 min 0 W/m 12,9 km/h (3 Bft) 95,74 %
26.08.2022 20:54 21,1 C 20,0 C 16,7 C 80 % 1016,2 hPa 0,0 l/m 0 min 0 min 0 W/m 12,9 km/h (3 Bft) 95,74 %
26.08.2022 20:56 21,1 C 20,0 C 16,7 C 81 % 1016,2 hPa 0,0 l/m 0 min 0 min 0 W/m 16,1 km/h (3 Bft) 95,74 %
26.08.2022 20:58 21,0 C 20,0 C 16,7 C 81 % 1016,2 hPa 0,0 l/m 0 min 0 min 0 W/m 12,9 km/h (3 Bft) 95,74 %
26.08.2022 21:00 21,0 C 20,0 C 16,7 C 81 % 1016,2 hPa 0,0 l/m 0 min 0 min 0 W/m 22,5 km/h (4 Bft) 95,74 %
26.08.2022 21:02 21,0 C 20,0 C 16,7 C 81 % 1016,2 hPa 0,0 l/m 0 min 0 min 0 W/m 9,7 km/h (2 Bft) 95,65 %
26.08.2022 21:04 21,0 C 20,0 C 16,7 C 81 % 1016,2 hPa 0,0 l/m 0 min 0 min 0 W/m 12,9 km/h (3 Bft) 93,62 %
26.08.2022 21:06 20,9 C 20,0 C 16,7 C 81 % 1016,2 hPa 0,0 l/m 0 min 0 min 0 W/m 19,3 km/h (3 Bft) 95,74 %
26.08.2022 21:08 20,9 C 20,0 C 16,7 C 81 % 1016,2 hPa 0,0 l/m 0 min 0 min 0 W/m 16,1 km/h (3 Bft) 93,62 %
26.08.2022 21:10 20,9 C 20,0 C 16,7 C 81 % 1016,3 hPa 0,0 l/m 0 min 0 min 0 W/m 16,1 km/h (3 Bft) 95,74 %
26.08.2022 21:12 20,9 C 20,0 C 16,7 C 82 % 1016,2 hPa 0,0 l/m 0 min 0 min 0 W/m 19,3 km/h (3 Bft) 95,74 %
26.08.2022 21:14 20,9 C 20,0 C 16,7 C 81 % 1016,3 hPa 0,0 l/m 0 min 0 min 0 W/m 6,4 km/h (2 Bft) 97,83 %
26.08.2022 21:16 20,9 C 20,0 C 16,7 C 82 % 1016,3 hPa 0,0 l/m 0 min 0 min 0 W/m 12,9 km/h (3 Bft) 97,87 %
26.08.2022 21:18 20,8 C 20,0 C 16,7 C 82 % 1016,3 hPa 0,0 l/m 0 min 0 min 0 W/m 19,3 km/h (3 Bft) 97,87 %
26.08.2022 21:20 20,8 C 20,0 C 16,7 C 82 % 1016,3 hPa 0,0 l/m 0 min 0 min 0 W/m 16,1 km/h (3 Bft) 97,87 %
26.08.2022 21:22 20,8 C 20,0 C 16,1 C 82 % 1016,3 hPa 0,0 l/m 0 min 0 min 0 W/m 16,1 km/h (3 Bft) 93,62 %
26.08.2022 21:24 20,7 C 19,4 C 16,1 C 82 % 1016,3 hPa 0,0 l/m 0 min 0 min 0 W/m 9,7 km/h (2 Bft) 95,74 %
26.08.2022 21:26 20,7 C 19,4 C 16,1 C 82 % 1016,3 hPa 0,0 l/m 0 min 0 min 0 W/m 16,1 km/h (3 Bft) 97,83 %
26.08.2022 21:28 20,6 C 19,4 C 16,1 C 82 % 1016,2 hPa 0,0 l/m 0 min 0 min 0 W/m 12,9 km/h (3 Bft) 100,00 %
26.08.2022 21:30 20,6 C 19,4 C 16,1 C 82 % 1016,3 hPa 0,0 l/m 0 min 0 min 0 W/m 9,7 km/h (2 Bft) 97,87 %
26.08.2022 21:32 20,6 C 19,4 C 16,1 C 82 % 1016,3 hPa 0,0 l/m 0 min 0 min 0 W/m 19,3 km/h (3 Bft) 100,00 %
26.08.2022 21:34 20,5 C 19,4 C 16,1 C 82 % 1016,3 hPa 0,0 l/m 0 min 0 min 0 W/m 22,5 km/h (4 Bft) 97,87 %
26.08.2022 21:36 20,5 C 19,4 C 16,1 C 82 % 1016,4 hPa 0,0 l/m 0 min 0 min 0 W/m 16,1 km/h (3 Bft) 100,00 %
26.08.2022 21:38 20,5 C 19,4 C 16,1 C 82 % 1016,3 hPa 0,0 l/m 0 min 0 min 0 W/m 25,7 km/h (4 Bft) 97,83 %
26.08.2022 21:40 20,4 C 19,4 C 16,1 C 82 % 1016,4 hPa 0,0 l/m 0 min 0 min 0 W/m 16,1 km/h (3 Bft) 97,87 %
26.08.2022 21:42 20,4 C 19,4 C 16,1 C 82 % 1016,4 hPa 0,0 l/m 0 min 0 min 0 W/m 16,1 km/h (3 Bft) 97,87 %
26.08.2022 21:44 20,4 C 19,4 C 16,1 C 82 % 1016,4 hPa 0,0 l/m 0 min 0 min 0 W/m 22,5 km/h (4 Bft) 100,00 %
26.08.2022 21:46 20,4 C 19,4 C 16,1 C 82 % 1016,4 hPa 0,0 l/m 0 min 0 min 0 W/m 9,7 km/h (2 Bft) 95,74 %
26.08.2022 21:48 20,3 C 19,4 C 16,1 C 82 % 1016,4 hPa 0,0 l/m 0 min 0 min 0 W/m 9,7 km/h (2 Bft) 100,00 %
26.08.2022 21:50 20,3 C 19,4 C 16,1 C 82 % 1016,3 hPa 0,0 l/m 0 min 0 min 0 W/m 19,3 km/h (3 Bft) 97,83 %
26.08.2022 21:52 20,3 C 19,4 C 16,1 C 82 % 1016,4 hPa 0,0 l/m 0 min 0 min 0 W/m 9,7 km/h (2 Bft) 100,00 %
26.08.2022 21:54 20,3 C 19,4 C 16,1 C 82 % 1016,3 hPa 0,0 l/m 0 min 0 min 0 W/m 16,1 km/h (3 Bft) 100,00 %
26.08.2022 21:56 20,3 C 19,4 C 16,1 C 82 % 1016,3 hPa 0,0 l/m 0 min 0 min 0 W/m 19,3 km/h (3 Bft) 100,00 %
26.08.2022 21:58 20,3 C 19,4 C 16,1 C 82 % 1016,3 hPa 0,0 l/m 0 min 0 min 0 W/m 16,1 km/h (3 Bft) 100,00 %
26.08.2022 22:00 20,3 C 19,4 C 16,1 C 82 % 1016,4 hPa 0,0 l/m 0 min 0 min 0 W/m 12,9 km/h (3 Bft) 100,00 %
26.08.2022 22:02 20,2 C 19,4 C 16,1 C 82 % 1016,3 hPa 0,0 l/m 0 min 0 min 0 W/m 16,1 km/h (3 Bft) 100,00 %
26.08.2022 22:04 20,2 C 19,4 C 16,1 C 82 % 1016,4 hPa 0,0 l/m 0 min 0 min 0 W/m 19,3 km/h (3 Bft) 100,00 %
26.08.2022 22:06 20,2 C 19,4 C 16,1 C 82 % 1016,4 hPa 0,0 l/m 0 min 0 min 0 W/m 19,3 km/h (3 Bft) 100,00 %
26.08.2022 22:08 20,2 C 19,4 C 16,1 C 82 % 1016,4 hPa 0,0 l/m 0 min 0 min 0 W/m 9,7 km/h (2 Bft) 97,87 %
26.08.2022 22:10 20,2 C 19,4 C 16,1 C 82 % 1016,3 hPa 0,0 l/m 0 min 0 min 0 W/m 9,7 km/h (2 Bft) 100,00 %
26.08.2022 22:12 20,2 C 19,4 C 16,1 C 82 % 1016,3 hPa 0,0 l/m 0 min 0 min 0 W/m 3,2 km/h (1 Bft) 97,87 %
26.08.2022 22:14 20,2 C 19,4 C 16,1 C 82 % 1016,3 hPa 0,0 l/m 0 min 0 min 0 W/m 12,9 km/h (3 Bft) 97,83 %
26.08.2022 22:16 20,2 C 19,4 C 16,1 C 82 % 1016,3 hPa 0,0 l/m 0 min 0 min 0 W/m 9,7 km/h (2 Bft) 100,00 %
26.08.2022 22:18 20,2 C 19,4 C 16,1 C 82 % 1016,3 hPa 0,0 l/m 0 min 0 min 0 W/m 9,7 km/h (2 Bft) 100,00 %
26.08.2022 22:20 20,2 C 19,4 C 16,1 C 82 % 1016,3 hPa 0,0 l/m 0 min 0 min 0 W/m 19,3 km/h (3 Bft) 97,87 %
26.08.2022 22:22 20,1 C 19,4 C 16,1 C 82 % 1016,3 hPa 0,0 l/m 0 min 0 min 0 W/m 12,9 km/h (3 Bft) 95,74 %
26.08.2022 22:24 20,1 C 19,4 C 16,1 C 82 % 1016,3 hPa 0,0 l/m 0 min 0 min 0 W/m 16,1 km/h (3 Bft) 97,87 %
26.08.2022 22:26 20,1 C 19,4 C 16,1 C 82 % 1016,3 hPa 0,0 l/m 0 min 0 min 0 W/m 22,5 km/h (4 Bft) 97,83 %
26.08.2022 22:28 20,1 C 19,4 C 16,1 C 82 % 1016,3 hPa 0,0 l/m 0 min 0 min 0 W/m 12,9 km/h (3 Bft) 97,87 %
26.08.2022 22:30 20,1 C 19,4 C 16,1 C 82 % 1016,3 hPa 0,0 l/m 0 min 0 min 0 W/m 22,5 km/h (4 Bft) 100,00 %
26.08.2022 22:32 20,1 C 19,4 C 16,1 C 82 % 1016,4 hPa 0,0 l/m 0 min 0 min 0 W/m 16,1 km/h (3 Bft) 97,87 %
26.08.2022 22:34 20,2 C 19,4 C 16,1 C 82 % 1016,3 hPa 0,0 l/m 0 min 0 min 0 W/m 12,9 km/h (3 Bft) 93,62 %
26.08.2022 22:36 20,2 C 19,4 C 16,1 C 82 % 1016,4 hPa 0,0 l/m 0 min 0 min 0 W/m 16,1 km/h (3 Bft) 95,65 %
26.08.2022 22:38 20,2 C 19,4 C 16,1 C 82 % 1016,5 hPa 0,0 l/m 0 min 0 min 0 W/m 12,9 km/h (3 Bft) 95,74 %
26.08.2022 22:40 20,2 C 19,4 C 16,1 C 82 % 1016,5 hPa 0,0 l/m 0 min 0 min 0 W/m 16,1 km/h (3 Bft) 95,74 %
26.08.2022 22:42 20,2 C 19,4 C 16,1 C 82 % 1016,5 hPa 0,0 l/m 0 min 0 min 0 W/m 25,7 km/h (4 Bft) 93,62 %
26.08.2022 22:44 20,1 C 19,4 C 16,1 C 82 % 1016,4 hPa 0,0 l/m 0 min 0 min 0 W/m 12,9 km/h (3 Bft) 95,74 %
26.08.2022 22:46 20,1 C 19,4 C 16,1 C 82 % 1016,5 hPa 0,0 l/m 0 min 0 min 0 W/m 19,3 km/h (3 Bft) 95,74 %
26.08.2022 22:48 20,1 C 19,4 C 15,6 C 82 % 1016,5 hPa 0,0 l/m 0 min 0 min 0 W/m 12,9 km/h (3 Bft) 95,74 %
26.08.2022 22:50 20,1 C 19,4 C 16,1 C 82 % 1016,5 hPa 0,0 l/m 0 min 0 min 0 W/m 9,7 km/h (2 Bft) 93,48 %
26.08.2022 22:52 20,2 C 19,4 C 16,1 C 82 % 1016,5 hPa 0,0 l/m 0 min 0 min 0 W/m 22,5 km/h (4 Bft) 95,74 %
26.08.2022 22:54 20,1 C 19,4 C 16,1 C 82 % 1016,6 hPa 0,0 l/m 0 min 0 min 0 W/m 16,1 km/h (3 Bft) 93,62 %
26.08.2022 22:56 20,1 C 19,4 C 16,1 C 82 % 1016,6 hPa 0,0 l/m 0 min 0 min 0 W/m 12,9 km/h (3 Bft) 95,74 %
26.08.2022 22:58 20,1 C 19,4 C 16,1 C 82 % 1016,6 hPa 0,0 l/m 0 min 0 min 0 W/m 16,1 km/h (3 Bft) 95,74 %
26.08.2022 23:00 20,1 C 19,4 C 16,1 C 81 % 1016,6 hPa 0,0 l/m 0 min 0 min 0 W/m 12,9 km/h (3 Bft) 95,65 %
26.08.2022 23:02 20,1 C 19,4 C 15,6 C 81 % 1016,6 hPa 0,0 l/m 0 min 0 min 0 W/m 6,4 km/h (2 Bft) 91,49 %
26.08.2022 23:04 20,1 C 19,4 C 15,6 C 81 % 1016,6 hPa 0,0 l/m 0 min 0 min 0 W/m 16,1 km/h (3 Bft) 95,74 %
26.08.2022 23:06 20,1 C 19,4 C 15,6 C 82 % 1016,6 hPa 0,0 l/m 0 min 0 min 0 W/m 19,3 km/h (3 Bft) 93,62 %
26.08.2022 23:08 20,1 C 19,4 C 15,6 C 82 % 1016,6 hPa 0,0 l/m 0 min 0 min 0 W/m 22,5 km/h (4 Bft) 97,87 %
26.08.2022 23:10 20,1 C 19,4 C 15,6 C 82 % 1016,6 hPa 0,0 l/m 0 min 0 min 0 W/m 6,4 km/h (2 Bft) 95,74 %
26.08.2022 23:12 20,1 C 19,4 C 15,6 C 82 % 1016,6 hPa 0,0 l/m 0 min 0 min 0 W/m 19,3 km/h (3 Bft) 97,83 %
26.08.2022 23:14 20,1 C 19,4 C 15,6 C 82 % 1016,7 hPa 0,0 l/m 0 min 0 min 0 W/m 12,9 km/h (3 Bft) 97,87 %
26.08.2022 23:16 20,1 C 19,4 C 15,6 C 82 % 1016,7 hPa 0,0 l/m 0 min 0 min 0 W/m 12,9 km/h (3 Bft) 97,87 %
26.08.2022 23:18 20,0 C 19,4 C 15,6 C 82 % 1016,7 hPa 0,0 l/m 0 min 0 min 0 W/m 12,9 km/h (3 Bft) 97,87 %
26.08.2022 23:20 20,0 C 19,4 C 15,6 C 82 % 1016,7 hPa 0,0 l/m 0 min 0 min 0 W/m 16,1 km/h (3 Bft) 95,74 %
26.08.2022 23:22 20,0 C 19,4 C 15,6 C 82 % 1016,7 hPa 0,0 l/m 0 min 0 min 0 W/m 12,9 km/h (3 Bft) 97,87 %
26.08.2022 23:24 20,0 C 19,4 C 15,6 C 82 % 1016,7 hPa 0,0 l/m 0 min 0 min 0 W/m 16,1 km/h (3 Bft) 97,83 %
26.08.2022 23:26 19,9 C 19,4 C 15,6 C 82 % 1016,7 hPa 0,0 l/m 0 min 0 min 0 W/m 12,9 km/h (3 Bft) 95,74 %
26.08.2022 23:28 19,9 C 19,4 C 15,6 C 82 % 1016,7 hPa 0,0 l/m 0 min 0 min 0 W/m 19,3 km/h (3 Bft) 100,00 %
26.08.2022 23:30 19,9 C 18,9 C 15,6 C 81 % 1016,7 hPa 0,0 l/m 0 min 0 min 0 W/m 22,5 km/h (4 Bft) 100,00 %
26.08.2022 23:32 19,9 C 18,9 C 15,6 C 81 % 1016,6 hPa 0,0 l/m 0 min 0 min 0 W/m 22,5 km/h (4 Bft) 100,00 %
26.08.2022 23:34 19,9 C 18,9 C 15,6 C 82 % 1016,6 hPa 0,0 l/m 0 min 0 min 0 W/m 9,7 km/h (2 Bft) 100,00 %
26.08.2022 23:36 19,9 C 18,9 C 15,6 C 82 % 1016,6 hPa 0,0 l/m 0 min 0 min 0 W/m 12,9 km/h (3 Bft) 100,00 %
26.08.2022 23:38 19,9 C 18,9 C 15,6 C 82 % 1016,6 hPa 0,0 l/m 0 min 0 min 0 W/m 12,9 km/h (3 Bft) 100,00 %
26.08.2022 23:40 19,9 C 18,9 C 15,6 C 82 % 1016,6 hPa 0,0 l/m 0 min 0 min 0 W/m 9,7 km/h (2 Bft) 95,74 %
26.08.2022 23:42 19,9 C 18,9 C 15,6 C 82 % 1016,6 hPa 0,0 l/m 0 min 0 min 0 W/m 29,0 km/h (5 Bft) 97,87 %
26.08.2022 23:44 19,8 C 18,9 C 15,6 C 82 % 1016,6 hPa 0,0 l/m 0 min 0 min 0 W/m 25,7 km/h (4 Bft) 97,87 %
26.08.2022 23:46 19,8 C 18,9 C 15,6 C 82 % 1016,5 hPa 0,0 l/m 0 min 0 min 0 W/m 9,7 km/h (2 Bft) 97,87 %
26.08.2022 23:48 19,8 C 18,9 C 15,6 C 82 % 1016,6 hPa 0,0 l/m 0 min 0 min 0 W/m 12,9 km/h (3 Bft) 97,83 %
26.08.2022 23:50 19,8 C 18,9 C 15,6 C 82 % 1016,6 hPa 0,0 l/m 0 min 0 min 0 W/m 16,1 km/h (3 Bft) 97,87 %
26.08.2022 23:52 19,8 C 18,9 C 15,6 C 82 % 1016,6 hPa 0,0 l/m 0 min 0 min 0 W/m 9,7 km/h (2 Bft) 97,87 %
26.08.2022 23:54 19,8 C 18,9 C 15,6 C 82 % 1016,7 hPa 0,0 l/m 0 min 0 min 0 W/m 12,9 km/h (3 Bft) 97,87 %
26.08.2022 23:56 19,7 C 18,9 C 15,6 C 82 % 1016,7 hPa 0,0 l/m 0 min 0 min 0 W/m 19,3 km/h (3 Bft) 97,87 %
26.08.2022 23:58 19,7 C 18,9 C 15,6 C 82 % 1016,7 hPa 0,0 l/m 0 min 0 min 0 W/m 12,9 km/h (3 Bft) 95,74 %
_ Min-Zeit 23:56 23:30 22:48 00:25 00:00 - - - - 00:00 02:20
Minimum _ 19,7 C 18,9 C 15,6 C 68 % 1013,0 hPa - - - - 0,0 km/h (0 Bft) 64,04 %
_ Max-Zeit 12:20 16:20 12:15 04:50 23:14 00:00 16:14 00:00 16:20 16:08 00:00
Maximum _ 23,6 C 25,0 C 20,0 C 92 % 1016,7 hPa 0,0 l/m 2 min 0 min 631 W/m 38,6 km/h
W (5 Bft)
100,00 %
Durchschnitt _ 21,6 C 21,0 C 17,5 C 83 % 1015,3 hPa #0,0 l/m #58 min. #0 min. 105 W/m 14,1 km/h (3 Bft) 98,15 %
© 2022 W. Hausmann